Time,TemperatureF,DewpointF,PressureIn,WindDirection,WindDirectionDegrees,WindSpeedMPH,WindSpeedGustMPH,Humidity,HourlyPrecipIn,Conditions,Clouds,dailyrainin,SoftwareType,DateUTC
2013-12-20 00:04:00,37.9,37.4,30.07,NNW,337,0.0,-999.0,98,-99.99,,,0.00,Acu-Link.com,2013-12-20 02:04:00,
2013-12-20 00:20:00,37.6,37.1,30.08,NNW,337,0.0,-999.0,98,-99.99,,,0.00,Acu-Link.com,2013-12-20 02:20:00,
2013-12-20 00:35:00,37.4,36.9,30.08,North,0,0.0,-999.0,98,-99.99,,,0.00,Acu-Link.com,2013-12-20 02:35:00,
2013-12-20 00:50:00,37.0,36.5,30.08,ENE,67,0.0,-999.0,98,-99.99,,,0.00,Acu-Link.com,2013-12-20 02:50:00,
2013-12-20 01:05:00,36.9,36.3,30.08,NNW,337,0.0,-999.0,98,-99.99,,,0.00,Acu-Link.com,2013-12-20 03:05:00,
2013-12-20 01:21:00,36.5,36.0,30.09,NNE,22,0.0,-999.0,98,-99.99,,,0.00,Acu-Link.com,2013-12-20 03:21:00,
2013-12-20 01:36:00,35.8,35.3,30.09,SSE,157,0.0,-999.0,98,-99.99,,,0.00,Acu-Link.com,2013-12-20 03:36:00,
2013-12-20 01:51:00,35.2,34.7,30.07,NW,315,0.0,-999.0,98,-99.99,,,0.00,Acu-Link.com,2013-12-20 03:51:00,
2013-12-20 02:06:00,34.7,34.2,30.07,NNW,337,0.0,-999.0,98,-99.99,,,0.00,Acu-Link.com,2013-12-20 04:06:00,
2013-12-20 02:21:00,34.3,33.8,30.07,NW,315,0.0,-999.0,98,-99.99,,,0.00,Acu-Link.com,2013-12-20 04:21:00,
2013-12-20 02:37:00,33.8,33.3,30.07,NNE,22,0.0,-999.0,98,-99.99,,,0.00,Acu-Link.com,2013-12-20 04:37:00,
2013-12-20 02:52:00,33.1,32.6,30.07,NNE,22,0.0,-999.0,98,-99.99,,,0.00,Acu-Link.com,2013-12-20 04:52:00,
2013-12-20 03:07:00,32.7,32.2,30.06,North,0,0.0,-999.0,98,-99.99,,,0.00,Acu-Link.com,2013-12-20 05:07:00,
2013-12-20 03:22:00,32.5,32.0,30.06,North,0,0.0,-999.0,98,-99.99,,,0.00,Acu-Link.com,2013-12-20 05:22:00,
2013-12-20 03:37:00,32.4,31.9,30.06,North,0,0.0,-999.0,98,-99.99,,,0.00,Acu-Link.com,2013-12-20 05:37:00,
2013-12-20 03:53:00,32.4,31.9,30.06,South,180,0.0,-999.0,98,-99.99,,,0.00,Acu-Link.com,2013-12-20 05:53:00,
2013-12-20 04:08:00,32.2,31.7,30.05,NNE,22,0.0,-999.0,98,-99.99,,,0.00,Acu-Link.com,2013-12-20 06:08:00,
2013-12-20 04:23:00,32.2,31.7,30.05,SW,225,0.0,-999.0,98,-99.99,,,0.00,Acu-Link.com,2013-12-20 06:23:00,
2013-12-20 04:38:00,32.0,31.5,30.05,SE,135,0.0,-999.0,98,-99.99,,,0.00,Acu-Link.com,2013-12-20 06:38:00,
2013-12-20 04:53:00,32.0,31.5,30.04,SSE,157,0.0,-999.0,98,-99.99,,,0.00,Acu-Link.com,2013-12-20 06:53:00,
2013-12-20 05:09:00,32.0,31.5,30.05,NNE,22,0.0,-999.0,98,-99.99,,,0.00,Acu-Link.com,2013-12-20 07:09:00,
2013-12-20 05:24:00,32.0,31.5,30.05,SE,135,0.0,-999.0,98,-99.99,,,0.00,Acu-Link.com,2013-12-20 07:24:00,
2013-12-20 05:39:00,32.0,31.5,30.05,SSE,157,0.0,-999.0,98,-99.99,,,0.00,Acu-Link.com,2013-12-20 07:39:00,
2013-12-20 05:54:00,32.0,31.5,30.05,SSW,202,0.0,-999.0,98,-99.99,,,0.00,Acu-Link.com,2013-12-20 07:54:00,
2013-12-20 06:10:00,32.0,31.5,30.05,NNW,337,0.0,-999.0,98,-99.99,,,0.00,Acu-Link.com,2013-12-20 08:10:00,
2013-12-20 06:25:00,31.8,31.3,30.05,WNW,292,0.0,-999.0,98,-99.99,,,0.00,Acu-Link.com,2013-12-20 08:25:00,
2013-12-20 06:40:00,31.8,31.3,30.06,WNW,292,0.0,-999.0,98,-99.99,,,0.00,Acu-Link.com,2013-12-20 08:40:00,
2013-12-20 06:55:00,31.6,31.1,30.06,NNW,337,0.0,-999.0,98,-99.99,,,0.00,Acu-Link.com,2013-12-20 08:55:00,
2013-12-20 07:10:00,31.5,31.0,30.06,NNW,337,0.0,-999.0,98,-99.99,,,0.00,Acu-Link.com,2013-12-20 09:10:00,
2013-12-20 07:26:00,31.3,30.8,30.06,NNW,337,0.0,-999.0,98,-99.99,,,0.00,Acu-Link.com,2013-12-20 09:26:00,
2013-12-20 07:41:00,31.1,30.6,30.06,NE,45,0.0,-999.0,98,-99.99,,,0.00,Acu-Link.com,2013-12-20 09:41:00,
2013-12-20 07:56:00,30.9,30.4,30.06,North,0,0.0,-999.0,98,-99.99,,,0.00,Acu-Link.com,2013-12-20 09:56:00,
2013-12-20 08:11:00,30.9,30.4,30.06,North,0,0.0,-999.0,98,-99.99,,,0.00,Acu-Link.com,2013-12-20 10:11:00,
2013-12-20 08:26:00,30.7,30.2,30.05,NNW,337,0.0,-999.0,98,-99.99,,,0.00,Acu-Link.com,2013-12-20 10:26:00,
2013-12-20 08:42:00,30.7,30.2,30.05,North,0,0.0,-999.0,98,-99.99,,,0.00,Acu-Link.com,2013-12-20 10:42:00,
2013-12-20 08:57:00,30.9,30.4,30.05,South,180,0.0,-999.0,98,-99.99,,,0.00,Acu-Link.com,2013-12-20 10:57:00,
2013-12-20 09:12:00,30.9,30.4,30.05,NNW,337,0.0,-999.0,98,-99.99,,,0.00,Acu-Link.com,2013-12-20 11:12:00,
2013-12-20 09:27:00,30.7,30.2,30.05,East,90,0.0,-999.0,98,-99.99,,,0.00,Acu-Link.com,2013-12-20 11:27:00,
2013-12-20 09:42:00,30.6,30.1,30.05,East,90,0.0,-999.0,98,-99.99,,,0.00,Acu-Link.com,2013-12-20 11:42:00,
2013-12-20 09:58:00,30.6,30.1,30.05,East,90,0.0,-999.0,98,-99.99,,,0.00,Acu-Link.com,2013-12-20 11:58:00,
2013-12-20 10:13:00,30.4,29.9,30.07,North,0,0.0,-999.0,98,-99.99,,,0.00,Acu-Link.com,2013-12-20 12:13:00,
2013-12-20 10:28:00,30.7,30.2,30.06,SE,135,0.0,-999.0,98,-99.99,,,0.00,Acu-Link.com,2013-12-20 12:28:00,
2013-12-20 10:43:00,31.6,31.1,30.06,East,90,0.0,-999.0,98,-99.99,,,0.00,Acu-Link.com,2013-12-20 12:43:00,
2013-12-20 10:59:00,32.4,31.9,30.07,NNW,337,0.0,-999.0,98,-99.99,,,0.00,Acu-Link.com,2013-12-20 12:59:00,
2013-12-20 11:14:00,33.8,33.3,30.07,NNE,22,0.0,-999.0,98,-99.99,,,0.00,Acu-Link.com,2013-12-20 13:14:00,
2013-12-20 11:29:00,34.9,34.4,30.07,ESE,112,0.0,-999.0,98,-99.99,,,0.00,Acu-Link.com,2013-12-20 13:29:00,
2013-12-20 11:44:00,36.1,35.6,30.07,South,180,0.0,-999.0,98,-99.99,,,0.00,Acu-Link.com,2013-12-20 13:44:00,
2013-12-20 11:59:00,37.6,37.1,30.07,South,180,0.0,-999.0,98,-99.99,,,0.00,Acu-Link.com,2013-12-20 13:59:00,
2013-12-20 12:15:00,39.2,38.7,30.07,SSE,157,0.0,-999.0,98,-99.99,,,0.00,Acu-Link.com,2013-12-20 14:15:00,
2013-12-20 12:30:00,40.8,40.3,30.07,ESE,112,0.0,-999.0,98,-99.99,,,0.00,Acu-Link.com,2013-12-20 14:30:00,
2013-12-20 12:45:00,42.3,41.7,30.07,SSW,202,0.0,-999.0,98,-99.99,,,0.00,Acu-Link.com,2013-12-20 14:45:00,
2013-12-20 13:00:00,43.3,42.8,30.07,South,180,0.0,-999.0,98,-99.99,,,0.00,Acu-Link.com,2013-12-20 15:00:00,
2013-12-20 13:15:00,44.4,43.9,30.08,ESE,112,0.0,-999.0,98,-99.99,,,0.00,Acu-Link.com,2013-12-20 15:15:00,
2013-12-20 13:31:00,46.0,45.5,30.08,South,180,0.0,-999.0,98,-99.99,,,0.00,Acu-Link.com,2013-12-20 15:31:00,
2013-12-20 13:46:00,47.5,46.9,30.08,ESE,112,0.0,-999.0,98,-99.99,,,0.00,Acu-Link.com,2013-12-20 15:46:00,
2013-12-20 14:01:00,48.4,47.8,30.08,SSW,202,0.0,-999.0,98,-99.99,,,0.00,Acu-Link.com,2013-12-20 16:01:00,
2013-12-20 14:16:00,51.1,50.5,30.07,SSE,157,0.0,-999.0,98,-99.99,,,0.00,Acu-Link.com,2013-12-20 16:16:00,
2013-12-20 14:31:00,52.5,52.0,30.07,North,0,0.0,-999.0,98,-99.99,,,0.00,Acu-Link.com,2013-12-20 16:31:00,
2013-12-20 14:47:00,54.7,54.1,30.06,SSW,202,0.0,-999.0,98,-99.99,,,0.00,Acu-Link.com,2013-12-20 16:47:00,
2013-12-20 15:02:00,55.4,54.8,30.06,ESE,112,0.0,-999.0,98,-99.99,,,0.00,Acu-Link.com,2013-12-20 17:02:00,
2013-12-20 15:17:00,56.5,55.9,30.05,South,180,0.0,-999.0,98,-99.99,,,0.00,Acu-Link.com,2013-12-20 17:17:00,
2013-12-20 15:32:00,57.6,57.0,30.04,SSW,202,2.2,-999.0,98,-99.99,,,0.00,Acu-Link.com,2013-12-20 17:32:00,
2013-12-20 15:48:00,57.9,57.1,30.03,SSE,157,1.1,-999.0,97,-99.99,,,0.00,Acu-Link.com,2013-12-20 17:48:00,
2013-12-20 16:03:00,58.8,57.4,30.01,WSW,247,1.1,-999.0,95,-99.99,,,0.00,Acu-Link.com,2013-12-20 18:03:00,
2013-12-20 16:18:00,59.2,57.2,30.01,SW,225,0.0,-999.0,93,-99.99,,,0.00,Acu-Link.com,2013-12-20 18:18:00,
2013-12-20 16:33:00,60.4,59.6,30.00,SSW,202,1.1,-999.0,97,-99.99,,,0.00,Acu-Link.com,2013-12-20 18:33:00,
2013-12-20 16:48:00,60.6,60.1,30.00,West,270,2.2,-999.0,98,-99.99,,,0.00,Acu-Link.com,2013-12-20 18:48:00,
2013-12-20 17:04:00,60.6,60.1,30.00,SSE,157,1.6,-999.0,98,-99.99,,,0.00,Acu-Link.com,2013-12-20 19:04:00,
2013-12-20 17:19:00,60.6,60.1,29.99,SE,135,2.2,-999.0,98,-99.99,,,0.00,Acu-Link.com,2013-12-20 19:19:00,
2013-12-20 17:34:00,59.7,59.2,29.99,ESE,112,0.0,-999.0,98,-99.99,,,0.00,Acu-Link.com,2013-12-20 19:34:00,
2013-12-20 17:49:00,59.4,58.8,29.99,SE,135,0.0,-999.0,98,-99.99,,,0.00,Acu-Link.com,2013-12-20 19:49:00,
2013-12-20 18:04:00,59.2,58.6,29.99,SSW,202,1.6,-999.0,98,-99.99,,,0.00,Acu-Link.com,2013-12-20 20:04:00,
2013-12-20 18:20:00,59.2,58.6,29.98,SSW,202,0.0,-999.0,98,-99.99,,,0.00,Acu-Link.com,2013-12-20 20:20:00,
2013-12-20 18:35:00,59.2,58.6,29.98,SSW,202,0.0,-999.0,98,-99.99,,,0.00,Acu-Link.com,2013-12-20 20:35:00,
2013-12-20 18:50:00,59.2,58.6,29.99,ESE,112,1.1,-999.0,98,-99.99,,,0.00,Acu-Link.com,2013-12-20 20:50:00,
2013-12-20 19:05:00,59.0,58.4,30.00,SSW,202,0.0,-999.0,98,-99.99,,,0.00,Acu-Link.com,2013-12-20 21:05:00,
2013-12-20 19:20:00,58.5,57.9,29.99,South,180,0.0,-999.0,98,-99.99,,,0.00,Acu-Link.com,2013-12-20 21:20:00,
2013-12-20 19:36:00,58.3,57.7,29.99,SSW,202,0.0,-999.0,98,-99.99,,,0.00,Acu-Link.com,2013-12-20 21:36:00,
2013-12-20 19:51:00,57.9,57.4,29.99,SSW,202,0.0,-999.0,98,-99.99,,,0.00,Acu-Link.com,2013-12-20 21:51:00,
2013-12-20 20:06:00,57.6,57.0,30.00,SSW,202,0.0,-999.0,98,-99.99,,,0.00,Acu-Link.com,2013-12-20 22:06:00,
2013-12-20 20:21:00,57.2,56.6,30.00,South,180,0.0,-999.0,98,-99.99,,,0.00,Acu-Link.com,2013-12-20 22:21:00,
2013-12-20 20:37:00,56.5,55.9,30.00,SSW,202,0.0,-999.0,98,-99.99,,,0.00,Acu-Link.com,2013-12-20 22:37:00,
2013-12-20 20:52:00,55.9,55.4,29.99,ESE,112,0.0,-999.0,98,-99.99,,,0.00,Acu-Link.com,2013-12-20 22:52:00,
2013-12-20 21:07:00,54.9,54.3,30.00,SSW,202,0.0,-999.0,98,-99.99,,,0.00,Acu-Link.com,2013-12-20 23:07:00,
2013-12-20 21:22:00,54.5,53.9,30.00,ENE,67,0.0,-999.0,98,-99.99,,,0.00,Acu-Link.com,2013-12-20 23:22:00,
2013-12-20 21:37:00,53.8,53.2,30.01,SW,225,0.0,-999.0,98,-99.99,,,0.00,Acu-Link.com,2013-12-20 23:37:00,
2013-12-20 21:53:00,53.8,53.2,30.01,NNW,337,0.0,-999.0,98,-99.99,,,0.00,Acu-Link.com,2013-12-20 23:53:00,
2013-12-20 22:08:00,53.8,53.2,30.02,NW,315,0.0,-999.0,98,-99.99,,,0.00,Acu-Link.com,2013-12-21 00:08:00,
2013-12-20 22:23:00,53.6,53.0,30.02,NNE,22,0.0,-999.0,98,-99.99,,,0.00,Acu-Link.com,2013-12-21 00:23:00,
2013-12-20 22:38:00,53.1,52.5,30.02,North,0,0.0,-999.0,98,-99.99,,,0.00,Acu-Link.com,2013-12-21 00:38:00,
2013-12-20 22:53:00,52.7,52.2,30.02,NNW,337,0.0,-999.0,98,-99.99,,,0.00,Acu-Link.com,2013-12-21 00:53:00,
2013-12-20 23:09:00,52.3,51.8,30.03,West,270,0.0,-999.0,98,-99.99,,,0.00,Acu-Link.com,2013-12-21 01:09:00,
2013-12-20 23:24:00,52.2,51.6,30.02,NNW,337,0.0,-999.0,98,-99.99,,,0.00,Acu-Link.com,2013-12-21 01:24:00,
2013-12-20 23:39:00,51.8,51.3,30.02,NNE,22,0.0,-999.0,98,-99.99,,,0.00,Acu-Link.com,2013-12-21 01:39:00,
2013-12-20 23:54:00,51.6,51.1,30.02,NNE,22,0.0,-999.0,98,-99.99,,,0.00,Acu-Link.com,2013-12-21 01:54:00,